STARLINK-30776, 58136

Orbit data source: Space-Track

STARLINK-30776, 58136 is a payload satellite owned by SpaceX/Seattle (US) in LEO that was launched on Sun, 22 Oct 2023 UTC via an FALCON 9 launch vehicle from the Air Force Eastern Test Range (AFETR). Payload-class satellites include a variety of spacecraft equipped with specific instruments for various scientific and technological missions. These include communications satellites like Starlink; space stations such as the ISS; scientific satellites like the Hubble; Earth observation satellites from companies like Planet Labs, Umbra, and HawkEye 360; GPS; miniature CubeSats for education and research; and military/defense satellites.

Loading next visibility...
Identifier
58136, 2023-162U
Orbit
LEO
Country
Flag of USUS
Related business
Manufacturer
SpaceX/Seattle
Mission
Operational Commercial Communications
Bus & Motor
STARLINK V2M, Unknown motor
Mass
730 kg wet, ~700 kg dry
Launch date (UTC)
2023-10-22 (2 years ago)
Launch vehicle
FALCON 9
Launch site
Air Force Eastern Test Range (AFETR)
Object type
Payload
Rocket body
Debris
Shape & HBR
Box + 2 Pan, 17.7 m
Radar Cross Section
33.884 m², Large (>1 m²)

Expand to show TLE details & history
Last TLE update: 23 hours ago

TLE from 23 hours ago
0 STARLINK-30776
1 58136U 23162U   25348.72097214  .00000496  00000-0  51818-4 0  9997
2 58136  43.0009 235.1710 0001083 272.6221  87.4497 15.02525473119514
Epoch: 2025-12-14T17:18Z
TLE epoch observation values (Epoch: 2025-12-14T17:18:11.992Z)
Latitude
-0.00006°
Longitude
-108.00886°
Altitude
558.857 km
Speed
7.584 km/s
True Right ascension
15h 40m 41s
True Declination
0° 00' 00"
Sunlit
Object was in daylight at epoch
Visualization orbit readout
Latitude
Unknown
Longitude
Unknown
Altitude
Unknown
Speed
Unknown
Apparent Right ascension
Unknown
Apparent Declination
Unknown
Sunlit
N/A
Visualization observer readout
Local Sidereal Time
15:09:06
Azimuth
Unknown
Elevation
Unknown
Doppler factor
Unknown
Orbital elements
Apogee altitude
561.787 km
Perigee altitude
560.284 km
Semi-major axis
6,939.173 km
Eccentricity
0.00011
Inclination
43.0009°
RAAN
235.171°
Arg. of periapsis
272.6221°
True anomaly
87.4621°
Mean anomaly
87.4497°
Eccentric anomaly
87.4559°
Mean motion
3.75476 °/min
Orbital period
95.88 mins
BSTAR
0.000051818
Loading maneuver chart data...
Computing Atmospheric mass density...
Loading historical data...
Loading historical data...
Loading historical data...
Loading historical data...
Loading historical data...
Loading historical data...
Loading historical data...

Documentation

Showing up to 5 results
|